H1 CPF 2 NER 2025 9 26 9 269 01 glonass132 H2 1401201 9132 39620 2025 9 26 0 0 0 2025 9 29 23 45 0 900 1 1 0 0 0 1 H9 10 0 60944 0.00000 0 -13550316.896 -1033777.510 -21574437.990 10 0 60944 900.00000 0 -11546339.850 -2887351.953 -22545727.685 10 0 60944 1800.00000 0 -9624885.674 -4955104.882 -23078478.634 10 0 60944 2700.00000 0 -7840187.900 -7191214.864 -23162175.227 10 0 60944 3600.00000 0 -6237808.508 -9540720.638 -22795046.398 10 0 60944 4500.00000 0 -4852877.430 -11941612.920 -21984111.183 10 0 60944 5400.00000 0 -3708784.863 -14327237.769 -20745051.525 10 0 60944 6300.00000 0 -2816381.349 -16628911.710 -19101913.979 10 0 60944 7200.00000 0 -2173719.219 -18778639.434 -17086645.490 10 0 60944 8100.00000 0 -1766345.913 -20711820.106 -14738471.765 10 0 60944 9000.00000 0 -1568136.248 -22369828.414 -12103130.157 10 0 60944 9900.00000 0 -1542627.523 -23702361.408 -9231972.138 10 0 60944 10800.00000 0 -1644799.830 -24669451.951 -6180953.342 10 0 60944 11700.00000 0 -1823224.669 -25243063.631 -3009531.679 10 0 60944 12600.00000 0 -2022489.191 -25408199.810 220503.834 10 0 60944 13500.00000 0 -2185791.523 -25163480.328 3446249.395 10 0 60944 14400.00000 0 -2257595.417 -24521162.141 6604922.802 10 0 60944 15300.00000 0 -2186230.155 -23506604.052 9635094.455 10 0 60944 16200.00000 0 -1926324.307 -22157199.389 12477887.947 10 0 60944 17100.00000 0 -1440969.433 -20520823.016 15078126.167 10 0 60944 18000.00000 0 -703521.807 -18653859.447 17385400.290 10 0 60944 18900.00000 0 301034.043 -16618896.147 19355041.127 10 0 60944 19800.00000 0 1575217.210 -14482179.609 20948974.658 10 0 60944 20700.00000 0 3108713.891 -12310941.171 22136446.233 10 0 60944 21600.00000 0 4878586.184 -10170704.130 22894600.788 10 0 60944 22500.00000 0 6850017.238 -8122683.830 23208909.399 10 0 60944 23400.00000 0 8977561.529 -6221387.792 23073435.423 10 0 60944 24300.00000 0 11206848.385 -4512514.144 22490936.458 10 0 60944 25200.00000 0 13476668.395 -3031233.759 21472801.246 10 0 60944 26100.00000 0 15721356.763 -1800925.547 20038823.418 10 0 60944 27000.00000 0 17873375.686 -832415.423 18216816.749 10 0 60944 27900.00000 0 19865989.710 -123748.823 16042079.210 10 0 60944 28800.00000 0 21635924.147 339495.280 13556715.659 10 0 60944 29700.00000 0 23125897.250 583363.139 10808831.457 10 0 60944 30600.00000 0 24286921.760 644193.656 7851611.585 10 0 60944 31500.00000 0 25080280.654 566850.677 4742302.012 10 0 60944 32400.00000 0 25479095.068 402594.390 1541111.993 10 0 60944 33300.00000 0 25469418.885 206681.141 -1689942.462 10 0 60944 34200.00000 0 25050813.874 35792.513 -4888232.218 10 0 60944 35100.00000 0 24236380.546 -54598.119 -7991723.242 10 0 60944 36000.00000 0 23052242.504 -12810.451 -10940176.332 10 0 60944 36900.00000 0 21536504.667 206615.936 -13676315.193 10 0 60944 37800.00000 0 19737727.816 640755.915 -16146940.176 10 0 60944 38700.00000 0 17712982.090 1316486.860 -18303965.892 10 0 60944 39600.00000 0 15525559.853 2249108.293 -20105362.195 10 0 60944 40500.00000 0 13242442.736 3441453.222 -21515979.865 10 0 60944 41400.00000 0 10931628.065 4883530.686 -22508244.437 10 0 60944 42300.00000 0 8659426.087 6552716.855 -23062704.063 10 0 60944 43200.00000 0 6487840.716 8414488.921 -23168420.074 10 0 60944 44100.00000 0 4472143.258 10423673.156 -22823191.869 10 0 60944 45000.00000 0 2658740.701 12526156.627 -22033610.933 10 0 60944 45900.00000 0 1083427.848 14660992.262 -20814942.079 10 0 60944 46800.00000 0 -229903.418 16762810.049 -19190833.432 10 0 60944 47700.00000 0 -1270043.671 18764433.709 -17192860.099 10 0 60944 48600.00000 0 -2038701.883 20599593.116 -14859909.943 10 0 60944 49500.00000 0 -2550188.419 22205618.211 -12237423.179 10 0 60944 50400.00000 0 -2830559.392 23526000.546 -9376500.741 10 0 60944 51300.00000 0 -2916259.737 24512713.963 -6332899.277 10 0 60944 52200.00000 0 -2852323.939 25128195.987 -3165933.157 10 0 60944 53100.00000 0 -2690212.325 25346905.917 62693.932 10 0 60944 54000.00000 0 -2485376.480 25156393.731 3290103.742 10 0 60944 54900.00000 0 -2294658.832 24557834.914 6453479.477 10 0 60944 55800.00000 0 -2173638.382 23566009.231 9491297.661 10 0 60944 56700.00000 0 -2174036.474 22208725.295 12344530.771 10 0 60944 57600.00000 0 -2341293.541 20525716.300 14957796.491 10 0 60944 58500.00000 0 -2712419.967 18567054.627 17280430.920 10 0 60944 59400.00000 0 -3314212.082 16391153.094 19267465.067 10 0 60944 60300.00000 0 -4161908.351 14062437.482 20880486.358 10 0 60944 61200.00000 0 -5258341.961 11648788.336 22088369.495 10 0 60944 62100.00000 0 -6593624.854 9218858.826 22867863.877 10 0 60944 63000.00000 0 -8145375.989 6839379.996 23204027.771 10 0 60944 63900.00000 0 -9879483.945 4572564.504 23090502.330 10 0 60944 64800.00000 0 -11751371.918 2473715.312 22529621.562 10 0 60944 65700.00000 0 -13707712.638 589136.743 21532357.207 10 0 60944 66600.00000 0 -15688522.298 -1045567.357 20118100.348 10 0 60944 67500.00000 0 -17629547.183 -2406739.792 18314284.230 10 0 60944 68400.00000 0 -19464844.759 -3483410.775 16155855.502 10 0 60944 69300.00000 0 -21129452.923 -4277504.158 13684603.565 10 0 60944 70200.00000 0 -22562037.425 -4803502.032 10948360.226 10 0 60944 71100.00000 0 -23707408.128 -5087582.718 8000084.094 10 0 60944 72000.00000 0 -24518799.864 -5166268.858 4896846.382 10 0 60944 72900.00000 0 -24959823.078 -5084642.585 1698736.683 10 0 60944 73800.00000 0 -25006002.705 -4894202.687 -1532291.093 10 0 60944 74700.00000 0 -24645840.507 -4650453.803 -4733610.997 10 0 60944 75600.00000 0 -23881355.610 -4410328.951 -7843133.014 10 0 60944 76500.00000 0 -22728079.489 -4229553.991 -10800503.701 10 0 60944 77400.00000 0 -21214504.253 -4160065.318 -13548276.292 10 0 60944 78300.00000 0 -19381005.875 -4247590.174 -16033027.577 10 0 60944 79200.00000 0 -17278285.896 -4529492.450 -18206399.693 10 0 60944 80100.00000 0 -14965395.426 -5032976.013 -20026046.272 10 0 60944 81000.00000 0 -12507422.773 -5773722.789 -21456464.165 10 0 60944 81900.00000 0 -9972940.298 -6755024.805 -22469694.102 10 0 60944 82800.00000 0 -7431316.364 -7967448.716 -23045876.038 10 0 60944 83700.00000 0 -4950004.113 -9389049.048 -23173647.711 10 0 60944 84600.00000 0 -2591919.948 -10986123.230 -22850377.883 10 0 60944 85500.00000 0 -413021.154 -12714478.573 -22082228.887 10 0 60945 0.00000 0 1539815.967 -14521159.352 -20884046.532 10 0 60945 900.00000 0 3230529.681 -16346563.586 -19279077.971 10 0 60945 1800.00000 0 4635143.014 -18126858.812 -17298524.016 10 0 60945 2700.00000 0 5742520.999 -19796598.710 -14980931.986 10 0 60945 3600.00000 0 6554581.014 -21291427.884 -12371442.185 10 0 60945 4500.00000 0 7085949.269 -22550761.270 -9520902.217 10 0 60945 5400.00000 0 7363078.890 -23520324.318 -6484866.997 10 0 60945 6300.00000 0 7422868.375 -24154445.974 -3322504.687 10 0 60945 7200.00000 0 7310840.567 -24418006.923 -95431.097 10 0 60945 8100.00000 0 7078961.173 -24287960.307 3133503.470 10 0 60945 9000.00000 0 6783191.236 -23754360.542 6301449.858 10 0 60945 9900.00000 0 6480879.112 -22820856.951 9346792.762 10 0 60945 10800.00000 0 6228104.103 -21504631.963 12210355.384 10 0 60945 11700.00000 0 6077085.486 -19835787.299 14836551.841 10 0 60945 12600.00000 0 6073767.391 -17856204.964 17174464.558 10 0 60945 13500.00000 0 6255681.907 -15617931.939 19178825.891 10 0 60945 14400.00000 0 6650180.537 -13181157.094 20810885.587 10 0 60945 15300.00000 0 7273107.993 -10611865.566 22039148.281 10 0 60945 16200.00000 0 8127973.498 -7979268.678 22839968.127 10 0 60945 17100.00000 0 9205653.595 -5353116.075 23197990.591 10 0 60945 18000.00000 0 10484638.303 -2801001.099 23106434.366 10 0 60945 18900.00000 0 11931809.845 -385769.975 22567209.373 10 0 60945 19800.00000 0 13503721.324 1836859.417 21590869.674 10 0 60945 20700.00000 0 15148322.146 3820372.319 20196402.943 10 0 60945 21600.00000 0 16807058.784 5529141.498 18410860.901 10 0 60945 22500.00000 0 18417264.126 6939653.395 16268837.736 10 0 60945 23400.00000 0 19914736.731 8041226.965 13811806.116 10 0 60945 24300.00000 0 21236403.474 8836196.920 11087322.857 10 0 60945 25200.00000 0 22322955.412 9339554.984 8148118.579 10 0 60945 26100.00000 0 23121347.513 9578065.023 5051087.925 10 0 60945 27000.00000 0 23587058.205 9588889.582 1856198.817 10 0 60945 27900.00000 0 23686014.265 9417785.590 -1374659.136 10 0 60945 28800.00000 0 23396100.087 9116944.977 -4578865.498 10 0 60945 29700.00000 0 22708187.337 8742570.871 -7694276.686 10 0 60945 30600.00000 0 21626640.656 8352291.265 -10660427.431 10 0 60945 31500.00000 0 20169276.780 8002519.148 -13419702.859 10 0 60945 32400.00000 0 18366777.084 7745870.542 -15918458.444 10 0 60945 33300.00000 0 16261576.373 7628749.829 -18108065.952 10 0 60945 34200.00000 0 13906272.646 7689204.953 -19945864.739 10 0 60945 35100.00000 0 11361622.697 7955144.045 -21395999.515 10 0 60945 36000.00000 0 8694205.831 8442990.025 -22430127.824 10 0 60945 36900.00000 0 5973852.107 9156831.498 -23027982.851 10 0 60945 37800.00000 0 3270941.550 10088107.472 -23177779.930 10 0 60945 38700.00000 0 653686.444 11215841.012 -22876458.079 10 0 60945 39600.00000 0 -1814490.204 12507413.680 -22129751.004 10 0 60945 40500.00000 0 -4077370.695 13919849.725 -20952085.359 10 0 60945 41400.00000 0 -6088052.286 15401557.144 -19366307.391 10 0 60945 42300.00000 0 -7810662.180 16894453.103 -17403242.601 10 0 60945 43200.00000 0 -9221606.194 18336384.514 -15101096.472 10 0 60945 44100.00000 0 -10310299.051 19663741.644 -12504707.680 10 0 60945 45000.00000 0 -11079346.223 20814153.996 -9664668.430 10 0 60945 45900.00000 0 -11544170.675 21729153.854 -6636329.516 10 0 60945 46800.00000 0 -11732101.579 22356694.083 -3478710.274 10 0 60945 47700.00000 0 -11680965.144 22653412.763 -253335.828 10 0 60945 48600.00000 0 -11437239.069 22586548.172 2976974.399 10 0 60945 49500.00000 0 -11053850.715 22135422.602 6149341.900 10 0 60945 50400.00000 0 -10587714.250 21292432.133 9202062.579 10 0 60945 51300.00000 0 -10097112.825 20063500.721 12075813.373 10 0 60945 52200.00000 0 -9639038.069 18467979.960 14714807.756 10 0 60945 53100.00000 0 -9266600.473 16537999.463 17067877.274 10 0 60945 54000.00000 0 -9026620.576 14317295.943 19089458.236 10 0 60945 54900.00000 0 -8957502.627 11859570.895 20740465.076 10 0 60945 55800.00000 0 -9087479.867 9226446.118 21989034.437 10 0 60945 56700.00000 0 -9433304.475 6485102.689 22811126.960 10 0 60945 57600.00000 0 -9999436.248 3705701.476 23190976.641 10 0 60945 58500.00000 0 -10777763.043 958691.856 23121380.596 10 0 60945 59400.00000 0 -11747863.853 -1687880.810 22603825.049 10 0 60945 60300.00000 0 -12877802.931 -4170958.793 21648446.234 10 0 60945 61200.00000 0 -14125421.520 -6434841.426 20273827.725 10 0 60945 62100.00000 0 -15440073.355 -8433244.157 18506638.470 10 0 60945 63000.00000 0 -16764731.941 -10130963.870 16381118.429 10 0 60945 63900.00000 0 -18038382.324 -11505083.261 13938421.295 10 0 60945 64800.00000 0 -19198598.283 -12545665.915 11225826.239 10 0 60945 65700.00000 0 -20184198.131 -13255914.530 8295832.920 10 0 60945 66600.00000 0 -20937868.789 -13651786.667 5205156.200 10 0 60945 67500.00000 0 -21408648.765 -13761084.749 2013638.965 10 0 60945 68400.00000 0 -21554166.231 -13622058.685 -1216896.918 10 0 60945 69300.00000 0 -21342538.082 -13281579.742 -4423839.989 10 0 60945 70200.00000 0 -20753849.645 -12792962.241 -7544996.530 10 0 60945 71100.00000 0 -19781151.867 -12213524.443 -10519792.798 10 0 60945 72000.00000 0 -18430932.633 -11601991.141 -13290449.021 10 0 60945 72900.00000 0 -16723040.681 -11015847.312 -15803102.360 10 0 60945 73800.00000 0 -14690063.313 -10508754.518 -18008856.914 10 0 60945 74700.00000 0 -12376181.927 -10128139.362 -19864740.051 10 0 60945 75600.00000 0 -9835551.280 -9913056.336 -21334546.127 10 0 60945 76500.00000 0 -7130268.349 -9892416.108 -22389550.684 10 0 60945 77400.00000 0 -4328014.079 -10083655.093 -23009080.674 10 0 60945 78300.00000 0 -1499465.169 -10491903.760 -23180928.900 10 0 60945 79200.00000 0 1284417.104 -11109690.167 -22901603.880 10 0 60945 80100.00000 0 3955108.475 -11917192.685 -22176409.379 10 0 60945 81000.00000 0 6449140.468 -12883032.593 -21019351.220 10 0 60945 81900.00000 0 8710507.138 -13965574.249 -19452872.341 10 0 60945 82800.00000 0 10692759.154 -15114678.760 -17507420.512 10 0 60945 83700.00000 0 12360697.600 -16273837.567 -15220856.618 10 0 60945 84600.00000 0 13691596.674 -17382595.784 -12637714.743 10 0 60945 85500.00000 0 14675904.297 -18379162.479 -9808328.570 10 0 60946 0.00000 0 15317391.872 -19203096.672 -6787841.837 10 0 60946 900.00000 0 15632748.235 -19797954.850 -3635121.253 10 0 60946 1800.00000 0 15650635.628 -20113785.791 -411598.298 10 0 60946 2700.00000 0 15410250.438 -20109367.561 2819941.592 10 0 60946 3600.00000 0 14959450.607 -19754090.058 5996593.472 10 0 60946 4500.00000 0 14352531.365 -19029403.397 9056567.090 10 0 60946 5400.00000 0 13647745.202 -17929770.680 11940395.420 10 0 60946 6300.00000 0 12904672.661 -16463085.083 14592093.225 10 0 60946 7200.00000 0 12181556.310 -14650534.111 16960242.689 10 0 60946 8100.00000 0 11532711.198 -12525917.344 18998985.185 10 0 60946 9000.00000 0 11006121.209 -10134446.866 20668900.527 10 0 60946 9900.00000 0 10641322.182 -7531081.167 21937757.669 10 0 60946 10800.00000 0 10467660.059 -4778462.316 22781123.654 10 0 60946 11700.00000 0 10502996.069 -1944542.247 23182820.577 10 0 60946 12600.00000 0 10752912.017 900003.605 23135223.237 10 0 60946 13500.00000 0 11210447.738 3684468.896 22639393.151 10 0 60946 14400.00000 0 11856380.630 6340804.915 21705047.489 10 0 60946 15300.00000 0 12660034.855 8806195.283 20350364.321 10 0 60946 16200.00000 0 13580585.983 11025412.005 18601628.278 10 0 60946 17100.00000 0 14568806.557 12952857.216 16492723.439 10 0 60946 18000.00000 0 15569179.960 14554207.738 14064482.778 10 0 60946 18900.00000 0 16522294.735 15807595.891 11363905.992 10 0 60946 19800.00000 0 17367419.905 16704278.845 8443259.854 10 0 60946 20700.00000 0 18045154.121 17248769.666 5359077.438 10 0 60946 21600.00000 0 18500038.142 17458425.313 2171074.499 10 0 60946 22500.00000 0 18683021.345 17362509.141 -1058996.992 10 0 60946 23400.00000 0 18553678.636 17000767.235 -4268536.741 10 0 60946 24300.00000 0 18082084.138 16421578.125 -7395303.046 10 0 60946 25200.00000 0 17250261.974 15679753.309 -10378615.782 10 0 60946 26100.00000 0 16053151.825 14834080.728 -13160532.252 10 0 60946 27000.00000 0 14499046.931 13944714.327 -15686973.132 10 0 60946 27900.00000 0 12609484.092 13070519.441 -17908776.532 10 0 60946 28800.00000 0 10418588.096 12266485.915 -19782659.367 10 0 60946 29700.00000 0 7971895.731 11581318.219 -21272067.029 10 0 60946 30600.00000 0 5324706.434 11055304.612 -22347894.330 10 0 60946 31500.00000 0 2540026.533 10718555.898 -22989063.099 10 0 60946 32400.00000 0 -313808.714 10589688.920 -23182944.541 10 0 60946 33300.00000 0 -3165737.374 10675011.342 -22925617.346 10 0 60946 34200.00000 0 -5944689.699 10968243.184 -22221955.679 10 0 60946 35100.00000 0 -8582310.711 11450787.887 -21085544.485 10 0 60946 36000.00000 0 -11015573.122 12092542.417 -19538422.903 10 0 60946 36900.00000 0 -13189171.394 12853212.810 -17610660.032 10 0 60946 37800.00000 0 -15057596.759 13684079.947 -15339770.809 10 0 60946 38700.00000 0 -16586806.249 14530140.853 -12769983.017 10 0 60946 39600.00000 0 -17755415.792 15332534.499 -9951369.824 10 0 60946 40500.00000 0 -18555367.663 16031148.623 -6938865.148 10 0 60946 41400.00000 0 -18992044.942 16567296.134 -3791181.788 10 0 60946 42300.00000 0 -19083829.281 16886346.490 -569654.582 10 0 60946 43200.00000 0 -18861122.152 16940199.350 2662967.584 10 0 60946 44100.00000 0 -18364872.723 16689494.637 5843755.960 10 0 60946 45000.00000 0 -17644676.507 16105464.623 8910836.821 10 0 60946 45900.00000 0 -16756527.134 15171349.177 11804601.897 10 0 60946 46800.00000 0 -15760318.011 13883314.247 14468869.942 10 0 60946 47700.00000 0 -14717200.816 12250834.976 16851976.425 10 0 60946 48600.00000 0 -13686913.246 10296527.722 18907770.298 10 0 60946 49500.00000 0 -12725189.005 8055438.489 20596499.082 10 0 60946 50400.00000 0 -11881358.856 5573818.028 21885566.095 10 0 60946 51300.00000 0 -11196242.828 2907435.072 22750146.519 10 0 60946 52200.00000 0 -10700420.882 119498.000 23173651.900 10 0 60946 53100.00000 0 -10412953.074 -2721728.965 23148035.647 10 0 60946 54000.00000 0 -10340601.282 -5545516.782 22673935.044 10 0 60946 54900.00000 0 -10477583.572 -8281363.551 21760648.198 10 0 60946 55800.00000 0 -10805870.237 -10861677.282 20425947.182 10 0 60946 56700.00000 0 -11296008.226 -13224340.039 18695731.343 10 0 60946 57600.00000 0 -11908438.969 -15315049.029 16603527.451 10 0 60946 58500.00000 0 -12595254.378 -17089339.322 14189845.906 10 0 60946 59400.00000 0 -13302317.737 -18514205.868 11501404.718 10 0 60946 60300.00000 0 -13971661.115 -19569258.817 8590235.261 10 0 60946 61200.00000 0 -14544059.380 -20247365.038 5512686.061 10 0 60946 62100.00000 0 -14961673.311 -20554749.824 2328342.812 10 0 60946 63000.00000 0 -15170651.210 -20510554.863 -901115.470 10 0 60946 63900.00000 0 -15123579.711 -20145870.980 -4113102.797 10 0 60946 64800.00000 0 -14781680.427 -19502285.963 -7245332.699 10 0 60946 65700.00000 0 -14116659.290 -18630008.002 -10237021.895 10 0 60946 66600.00000 0 -13112129.586 -17585643.074 -13030067.967 10 0 60946 67500.00000 0 -11764547.223 -16429719.236 -15570178.218 10 0 60946 68400.00000 0 -10083616.942 -15224061.554 -17807927.679 10 0 60946 69300.00000 0 -8092150.153 -14029127.884 -19699725.439 10 0 60946 70200.00000 0 -5825377.991 -12901417.566 -21208670.135 10 0 60946 71100.00000 0 -3329745.915 -11891062.251 -22305277.547 10 0 60946 72000.00000 0 -661238.072 -11039700.620 -22968065.515 10 0 60946 72900.00000 0 2116700.587 -10378727.031 -23183984.159 10 0 60946 73800.00000 0 4935559.329 -9927988.501 -22948682.257 10 0 60946 74700.00000 0 7724375.046 -9694985.661 -22266603.731 10 0 60946 75600.00000 0 10412455.796 -9674612.109 -21150911.499 10 0 60946 76500.00000 0 12932101.212 -9849443.771 -19623239.288 10 0 60946 77400.00000 0 15221206.154 -10190566.531 -17713275.527 10 0 60946 78300.00000 0 17225638.630 -10658907.303 -15458186.805 10 0 60946 79200.00000 0 18901292.190 -11207012.143 -12901891.860 10 0 60946 80100.00000 0 20215726.560 -11781195.620 -10094200.266 10 0 60946 81000.00000 0 21149327.666 -12323969.570 -7089833.039 10 0 60946 81900.00000 0 21695938.663 -12776647.162 -3947344.962 10 0 60946 82800.00000 0 21862936.096 -13082010.585 -727970.814 10 0 60946 83700.00000 0 21670749.172 -13186927.835 2505580.744 10 0 60946 84600.00000 0 21151843.958 -13044806.406 5690360.677 10 0 60946 85500.00000 0 20349217.136 -12617778.806 8764415.056 10 0 60947 0.00000 0 19314464.947 -11878526.700 11667997.005 10 0 60947 900.00000 0 18105510.030 -10811665.626 14344732.240 10 0 60947 1800.00000 0 16784085.094 -9414632.795 16742711.207 10 0 60947 2700.00000 0 15413078.757 -7698039.437 18815491.895 10 0 60947 3600.00000 0 14053857.268 -5685474.096 20522990.496 10 0 60947 4500.00000 0 12763674.205 -3412765.183 21832245.190 10 0 60947 5400.00000 0 11593276.417 -926733.957 22718039.348 10 0 60947 6300.00000 0 10584805.489 1716509.979 23163373.610 10 0 60947 7200.00000 0 9770081.091 4453659.908 23159779.250 10 0 60947 8100.00000 0 9169336.331 7216603.623 22707468.227 10 0 60947 9000.00000 0 8790456.134 9935017.188 21815318.188 10 0 60947 9900.00000 0 8628748.856 12539054.505 20500693.541 10 0 60947 10800.00000 0 8667259.240 14962022.760 18789106.466 10 0 60947 11700.00000 0 8877608.616 17142934.536 16713724.368 10 0 60947 12600.00000 0 9221326.568 19028832.367 14314732.890 10 0 60947 13500.00000 0 9651618.116 20576790.820 11638566.062 10 0 60947 14400.00000 0 10115492.512 21755514.233 8737017.484 10 0 60947 15300.00000 0 10556164.658 22546464.596 5666248.705 10 0 60947 16200.00000 0 10915628.809 22944473.234 2485712.897 10 0 60947 17100.00000 0 11137296.739 22957811.074 -742986.339 10 0 60947 18000.00000 0 11168589.603 22607714.496 -3957279.730 10 0 60947 18900.00000 0 10963374.306 21927386.305 -7094838.331 10 0 60947 19800.00000 0 10484141.255 20960513.195 -10094777.849 10 0 60947 20700.00000 0 9703830.877 19759361.239 -12898838.087 10 0 60947 21600.00000 0 8607230.585 18382528.705 -15452514.698 10 0 60947 22500.00000 0 7191881.619 16892449.935 -17706121.160 10 0 60947 23400.00000 0 5468455.472 15352754.690 -19615760.051 10 0 60947 24300.00000 0 3460581.713 13825593.548 -21144184.402 10 0 60947 25200.00000 0 1204131.917 12369041.604 -22261531.945 10 0 60947 26100.00000 0 -1254012.747 11034689.643 -22945917.335 10 0 60947 27000.00000 0 -3857660.948 9865524.254 -23183870.211 10 0 60947 27900.00000 0 -6543408.597 8894186.346 -22970609.777 10 0 60947 28800.00000 0 -9243048.118 8141681.805 -22310149.713 10 0 60947 29700.00000 0 -11886190.049 7616598.975 -21215230.513 10 0 60947 30600.00000 0 -14402988.123 7314866.315 -19707079.689 10 0 60947 31500.00000 0 -16726854.114 7220060.686 -17815003.746 10 0 60947 32400.00000 0 -18797048.788 7304253.254 -15575819.314 10 0 60947 33300.00000 0 -20561040.150 7529356.948 -13033134.150 10 0 60947 34200.00000 0 -21976529.719 7848917.885 -10236492.086 10 0 60947 35100.00000 0 -23013061.457 8210273.931 -7240398.925 10 0 60947 36000.00000 0 -23653145.711 8556987.695 -4103249.048 10 0 60947 36900.00000 0 -23892851.139 8831449.348 -886174.730 10 0 60947 37800.00000 0 -23741840.420 8977537.333 2348158.062 10 0 60947 38700.00000 0 -23222849.387 8943222.624 5536782.521 10 0 60947 39600.00000 0 -22370633.041 8683004.794 8617667.045 10 0 60947 40500.00000 0 -21230424.618 8160075.658 11530929.205 10 0 60947 41400.00000 0 -19855974.464 7348118.233 14220003.158 10 0 60947 42300.00000 0 -18307252.990 6232664.672 16632737.313 10 0 60947 43200.00000 0 -16647915.731 4811955.898 18722401.003 10 0 60947 44100.00000 0 -14942637.932 3097266.960 20448581.170 10 0 60947 45000.00000 0 -13254430.842 1112684.800 21777952.635 10 0 60947 45900.00000 0 -11642051.904 -1105651.983 22684908.382 10 0 60947 46800.00000 0 -10157616.316 -3510819.446 23152039.174 10 0 60947 47700.00000 0 -8844508.416 -6046827.989 23170454.765 10 0 60947 48600.00000 0 -7735678.382 -8650724.271 22739941.982 10 0 60947 49500.00000 0 -6852393.334 -11254988.813 21868957.783 10 0 60947 50400.00000 0 -6203493.045 -13790130.808 20574458.289 10 0 60947 51300.00000 0 -5785179.494 -16187373.855 18881567.499 10 0 60947 52200.00000 0 -5581347.536 -18381322.730 16823092.077 10 0 60947 53100.00000 0 -5564441.791 -20312502.028 14438891.203 10 0 60947 54000.00000 0 -5696803.202 -21929662.739 11775112.932 10 0 60947 54900.00000 0 -5932448.571 -23191762.135 8883310.866 10 0 60947 55800.00000 0 -6219208.513 -24069535.490 5819457.163 10 0 60947 56700.00000 0 -6501134.286 -24546594.753 2642869.927 10 0 60947 57600.00000 0 -6721072.644 -24620008.569 -584925.311 10 0 60947 58500.00000 0 -6823300.612 -24300339.251 -3801378.722 10 0 60947 59400.00000 0 -6756109.259 -23611134.762 -6944121.698 10 0 60947 60300.00000 0 -6474227.338 -22587896.294 -9952171.796 10 0 60947 61200.00000 0 -5940981.965 -21276563.901 -12767113.936 10 0 60947 62100.00000 0 -5130104.205 -19731582.833 -15334234.998 10 0 60947 63000.00000 0 -4027101.969 -18013630.794 -17603589.673 10 0 60947 63900.00000 0 -2630140.505 -16187100.740 -19530976.597 10 0 60947 64800.00000 0 -950391.251 -14317444.199 -21078805.475 10 0 60947 65700.00000 0 988168.095 -12468486.116 -22216837.865 10 0 60947 66600.00000 0 3149496.344 -10699823.678 -22922786.655 10 0 60947 67500.00000 0 5486745.729 -9064418.140 -23182761.907 10 0 60947 68400.00000 0 7943982.541 -7606480.846 -22991553.636 10 0 60947 69300.00000 0 10458301.301 -6359742.369 -22352745.172 10 0 60947 70200.00000 0 12962245.420 -5346177.745 -21278653.999 10 0 60947 71100.00000 0 15386434.048 -4575241.554 -19790100.373 10 0 60947 72000.00000 0 17662285.555 -4043645.149 -17916007.409 10 0 60947 72900.00000 0 19724723.637 -3735685.254 -15692839.870 10 0 60947 73800.00000 0 21514752.315 -3624109.658 -13163892.197 10 0 60947 74700.00000 0 22981791.250 -3671482.713 -10378439.714 10 0 60947 75600.00000 0 24085672.776 -3831991.790 -7390769.873 10 0 60947 76500.00000 0 24798216.301 -4053616.875 -4259113.178 10 0 60947 77400.00000 0 25104313.661 -4280569.742 -1044495.723 10 0 60947 78300.00000 0 25002480.010 -4455897.608 2190462.983 10 0 60947 79200.00000 0 24504847.736 -4524139.131 5382782.072 10 0 60947 80100.00000 0 23636604.733 -4433918.589 8470355.783 10 0 60947 81000.00000 0 22434902.165 -4140367.011 11393169.085 10 0 60947 81900.00000 0 20947279.298 -3607266.839 14094467.905 10 0 60947 82800.00000 0 19229673.334 -2808828.855 16521860.701 10 0 60947 83700.00000 0 17344099.279 -1731026.219 18628330.030 10 0 60947 84600.00000 0 15356098.323 -372429.523 20373134.990 10 0 60947 85500.00000 0 13332062.219 1255491.950 21722587.995 99